,,PA_Meas_PMT16A,,PR_Meas_QMR101_102,,RH_Meas_QMH101,,SR_Meas_QMS101,,TA_Meas_QMH101,,GenWind,,GenWind,
time,status,PA,status,PR,status,RH,status,SR,status,TA,status,DirAvg,status,SpdAvg,
2010-01-06, 00:00:04,VALID,917.714,VALID,0,VALID,97.1223,VALID,0,VALID,19.9533,VALID,339,VALID,0.747266,
2010-01-06, 00:01:04,VALID,917.7,VALID,0,VALID,97.1147,VALID,0,VALID,19.9533,VALID,339,VALID,1.3668,
2010-01-06, 00:02:04,VALID,917.69,VALID,0,VALID,97.0918,VALID,0,VALID,19.9533,VALID,348,VALID,1.71719,
2010-01-06, 00:03:04,VALID,917.663,VALID,0,VALID,97.1223,VALID,0,VALID,19.9533,VALID,21,VALID,1.50977,
2010-01-06, 00:04:04,VALID,917.669,VALID,0,VALID,97.1147,VALID,0,VALID,19.9338,VALID,21,VALID,1.20664,
2010-01-06, 00:05:04,VALID,917.638,VALID,0,VALID,97.1681,VALID,0,VALID,19.9533,VALID,21,VALID,1.03828,
2010-01-06, 00:06:04,VALID,917.643,VALID,0,VALID,97.1299,VALID,0,VALID,19.9338,VALID,21,VALID,1.08633,
2010-01-06, 00:07:04,VALID,917.611,VALID,0,VALID,97.1452,VALID,0,VALID,19.9143,VALID,21,VALID,1.36992,
2010-01-06, 00:08:04,VALID,917.583,VALID,0,VALID,97.1299,VALID,0,VALID,19.9143,VALID,24,VALID,1.31953,
2010-01-06, 00:09:04,VALID,917.567,VALID,0,VALID,97.1604,VALID,0,VALID,19.9143,VALID,349,VALID,1.84375,
2010-01-06, 00:10:04,VALID,917.597,VALID,0,VALID,97.1909,VALID,0,VALID,19.9143,VALID,340,VALID,1.35312,
2010-01-06, 00:11:04,VALID,917.607,VALID,0,VALID,97.1833,VALID,0,VALID,19.8948,VALID,337,VALID,1.50234,
2010-01-06, 00:12:04,VALID,917.601,VALID,0,VALID,97.229,VALID,0,VALID,19.8948,VALID,345,VALID,1.40234,
2010-01-06, 00:13:04,VALID,917.613,VALID,0,VALID,97.229,VALID,0,VALID,19.9338,VALID,338,VALID,1.05117,
2010-01-06, 00:14:04,VALID,917.61,VALID,0,VALID,97.2519,VALID,0,VALID,19.9533,VALID,338,VALID,1.06758,
2010-01-06, 00:15:04,VALID,917.62,VALID,0,VALID,97.1986,VALID,0,VALID,19.9338,VALID,338,VALID,1.01445,
2010-01-06, 00:16:04,VALID,917.574,VALID,0,VALID,97.2443,VALID,0,VALID,19.9533,VALID,338,VALID,0.891797,
2010-01-06, 00:17:04,VALID,917.553,VALID,0,VALID,97.2443,VALID,0,VALID,19.9728,VALID,338,VALID,0.405469,
2010-01-06, 00:18:04,VALID,917.525,VALID,0.2,VALID,97.2367,VALID,0,VALID,19.9713,VALID,338,VALID,0.509766,
2010-01-06, 00:19:04,VALID,917.498,VALID,0,VALID,97.2672,VALID,0,VALID,19.9713,VALID,309,VALID,0.439844,
2010-01-06, 00:20:04,VALID,917.525,VALID,0,VALID,97.2824,VALID,0,VALID,20.0118,VALID,309,VALID,0,
2010-01-06, 00:21:04,VALID,917.509,VALID,0,VALID,97.29,VALID,0,VALID,20.0313,VALID,309,VALID,0.270312,
2010-01-06, 00:22:04,VALID,917.52,VALID,0,VALID,97.1604,VALID,0,VALID,19.9728,VALID,309,VALID,0.855469,
2010-01-06, 00:23:04,VALID,917.5,VALID,0.2,VALID,97.1833,VALID,0,VALID,19.9143,VALID,309,VALID,0.774609,
2010-01-06, 00:24:04,VALID,917.478,VALID,0,VALID,97.1909,VALID,0,VALID,19.9143,VALID,309,VALID,0.349609,
2010-01-06, 00:25:04,VALID,917.484,VALID,0,VALID,97.1376,VALID,0,VALID,19.8948,VALID,349,VALID,1.43555,
2010-01-06, 00:26:04,VALID,917.516,VALID,0,VALID,97.0918,VALID,0,VALID,19.8753,VALID,329,VALID,1.41602,
2010-01-06, 00:27:04,VALID,917.495,VALID,0,VALID,97.069,VALID,0,VALID,19.8363,VALID,327,VALID,1.30938,
2010-01-06, 00:28:04,VALID,917.495,VALID,0,VALID,97.0994,VALID,0,VALID,19.8363,VALID,28,VALID,1.45547,
2010-01-06, 00:29:04,VALID,917.499,VALID,0,VALID,97.0156,VALID,0,VALID,19.7973,VALID,359,VALID,1.50625,
2010-01-06, 00:30:04,VALID,917.494,VALID,0,VALID,96.9927,VALID,0,VALID,19.7973,VALID,355,VALID,1.89102,
2010-01-06, 00:31:04,VALID,917.503,VALID,0,VALID,96.9851,VALID,0,VALID,19.7973,VALID,4,VALID,1.68594,
2010-01-06, 00:32:04,VALID,917.487,VALID,0,VALID,97.0156,VALID,0,VALID,19.8168,VALID,341,VALID,1.45586,
2010-01-06, 00:33:04,VALID,917.529,VALID,0,VALID,97.0461,VALID,0,VALID,19.8168,VALID,351,VALID,1.06094,
2010-01-06, 00:34:04,VALID,917.515,VALID,0,VALID,96.9927,VALID,0,VALID,19.8168,VALID,343,VALID,1.36133,
2010-01-06, 00:35:04,VALID,917.502,VALID,0,VALID,96.9241,VALID,0,VALID,19.7778,VALID,343,VALID,1.32969,
2010-01-06, 00:36:04,VALID,917.52,VALID,0,VALID,96.9165,VALID,0,VALID,19.7973,VALID,343,VALID,1.27109,
2010-01-06, 00:37:04,VALID,917.483,VALID,0,VALID,96.8784,VALID,0,VALID,19.7958,VALID,11,VALID,1.55547,
2010-01-06, 00:38:04,VALID,917.487,VALID,0,VALID,96.8098,VALID,0,VALID,19.8168,VALID,38,VALID,1.29883,
2010-01-06, 00:39:04,VALID,917.453,VALID,0,VALID,96.764,VALID,0,VALID,19.8168,VALID,12,VALID,1.66016,
2010-01-06, 00:40:04,VALID,917.453,VALID,0,VALID,96.7793,VALID,0,VALID,19.8363,VALID,353,VALID,0.968359,
2010-01-06, 00:41:04,VALID,917.433,VALID,0,VALID,96.6725,VALID,0,VALID,19.8363,VALID,28,VALID,1.31992,
2010-01-06, 00:42:04,VALID,917.413,VALID,0,VALID,96.6115,VALID,0,VALID,19.8363,VALID,29,VALID,1.57734,
2010-01-06, 00:43:04,VALID,917.414,VALID,0,VALID,96.5201,VALID,0,VALID,19.8363,VALID,29,VALID,1.14023,
2010-01-06, 00:44:04,VALID,917.414,VALID,0,VALID,96.4667,VALID,0,VALID,19.8363,VALID,30,VALID,0.991406,
2010-01-06, 00:45:04,VALID,917.422,VALID,0,VALID,96.4133,VALID,0,VALID,19.8558,VALID,34,VALID,1.00391,
2010-01-06, 00:46:04,VALID,917.396,VALID,0,VALID,96.4667,VALID,0,VALID,19.8558,VALID,34,VALID,0.910937,
2010-01-06, 00:47:04,VALID,917.358,VALID,0,VALID,96.4362,VALID,0,VALID,19.8948,VALID,35,VALID,0.900781,
2010-01-06, 00:48:04,VALID,917.36,VALID,0,VALID,96.4667,VALID,0,VALID,19.8948,VALID,34,VALID,0.961328,
2010-01-06, 00:49:04,VALID,917.33,VALID,0,VALID,96.2685,VALID,0,VALID,19.9143,VALID,35,VALID,0.773438,
2010-01-06, 00:50:04,VALID,917.321,VALID,0,VALID,96.2533,VALID,0,VALID,19.9533,VALID,35,VALID,0.698828,
2010-01-06, 00:51:04,VALID,917.329,VALID,0,VALID,96.0932,VALID,0,VALID,19.9533,VALID,35,VALID,0.784766,
2010-01-06, 00:52:04,VALID,917.325,VALID,0,VALID,96.0245,VALID,0,VALID,19.9728,VALID,35,VALID,1.025,
2010-01-06, 00:53:04,VALID,917.269,VALID,0,VALID,95.9102,VALID,0,VALID,19.9923,VALID,35,VALID,1.12148,
2010-01-06, 00:54:04,VALID,917.26,VALID,0,VALID,95.7882,VALID,0,VALID,19.9923,VALID,35,VALID,1.11367,
2010-01-06, 00:55:04,VALID,917.256,VALID,0,VALID,95.6281,VALID,0,VALID,20.0118,VALID,35,VALID,1.47891,
2010-01-06, 00:56:04,VALID,917.229,VALID,0,VALID,95.5748,VALID,0,VALID,20.0313,VALID,35,VALID,0.944141,
2010-01-06, 00:57:04,VALID,917.224,VALID,0,VALID,95.59,VALID,0,VALID,20.0703,VALID,35,VALID,0.626562,
2010-01-06, 00:58:04,VALID,917.214,VALID,0,VALID,95.7425,VALID,0,VALID,20.1303,VALID,35,VALID,0.597656,
2010-01-06, 00:59:04,VALID,917.219,VALID,0,VALID,95.6129,VALID,0,VALID,20.0703,VALID,35,VALID,0.422656,
2010-01-06, 01:00:04,VALID,917.203,VALID,0,VALID,95.5748,VALID,0,VALID,20.0508,VALID,35,VALID,0.0726563,
2010-01-06, 01:01:04,VALID,917.232,VALID,0,VALID,95.7349,VALID,0,VALID,20.0313,VALID,35,VALID,0,
2010-01-06, 01:02:04,VALID,917.191,VALID,0,VALID,95.712,VALID,0,VALID,20.0118,VALID,35,VALID,0.630078,
2010-01-06, 01:03:04,VALID,917.189,VALID,0,VALID,95.712,VALID,0,VALID,19.9533,VALID,35,VALID,0.633984,
2010-01-06, 01:04:04,VALID,917.182,VALID,0,VALID,95.7958,VALID,0,VALID,19.9533,VALID,35,VALID,0.648047,
2010-01-06, 01:05:04,VALID,917.206,VALID,0,VALID,95.8263,VALID,0,VALID,19.9338,VALID,35,VALID,1.15781,
2010-01-06, 01:06:04,VALID,917.164,VALID,0,VALID,95.895,VALID,0,VALID,19.9158,VALID,35,VALID,0.551562,
2010-01-06, 01:07:04,VALID,917.139,VALID,0,VALID,96.0093,VALID,0,VALID,19.8753,VALID,35,VALID,1.09844,
2010-01-06, 01:08:04,VALID,917.166,VALID,0,VALID,96.0474,VALID,0,VALID,19.8768,VALID,35,VALID,0.692187,
2010-01-06, 01:09:04,VALID,917.109,VALID,0,VALID,96.1008,VALID,0,VALID,19.8363,VALID,35,VALID,1.025,
2010-01-06, 01:10:04,VALID,917.095,VALID,0,VALID,96.1389,VALID,0,VALID,19.8168,VALID,35,VALID,0.875391,
2010-01-06, 01:11:04,VALID,917.081,VALID,0,VALID,96.299,VALID,0,VALID,19.8573,VALID,35,VALID,0.592969,
2010-01-06, 01:12:04,VALID,917.05,VALID,0,VALID,96.2533,VALID,0,VALID,19.8168,VALID,35,VALID,0.772656,
2010-01-06, 01:13:04,VALID,917.021,VALID,0,VALID,96.2456,VALID,0,VALID,19.7988,VALID,35,VALID,0.826953,
2010-01-06, 01:14:04,VALID,917.029,VALID,0,VALID,96.2914,VALID,0.107441,VALID,19.7583,VALID,35,VALID,0.875391,
2010-01-06, 01:15:04,VALID,916.996,VALID,0,VALID,96.3752,VALID,0,VALID,19.7598,VALID,35,VALID,0.925391,
2010-01-06, 01:16:04,VALID,916.997,VALID,0,VALID,96.3905,VALID,0,VALID,19.7583,VALID,35,VALID,1.29414,
2010-01-06, 01:17:04,VALID,916.991,VALID,0,VALID,96.3676,VALID,0,VALID,19.7388,VALID,35,VALID,1.29609,
2010-01-06, 01:18:04,VALID,916.996,VALID,0,VALID,96.36,VALID,0,VALID,19.7583,VALID,35,VALID,0.879687,
2010-01-06, 01:19:04,VALID,916.955,VALID,0,VALID,96.36,VALID,0,VALID,19.7388,VALID,35,VALID,0.875781,
2010-01-06, 01:20:04,VALID,916.979,VALID,0,VALID,96.421,VALID,0,VALID,19.7388,VALID,35,VALID,0.885547,
2010-01-06, 01:21:04,VALID,916.971,VALID,0,VALID,96.3981,VALID,0,VALID,19.7193,VALID,35,VALID,0.780859,
2010-01-06, 01:22:04,VALID,916.971,VALID,0,VALID,96.4133,VALID,0,VALID,19.7193,VALID,35,VALID,0.530859,
2010-01-06, 01:23:04,VALID,916.934,VALID,0,VALID,96.4515,VALID,0,VALID,19.7193,VALID,35,VALID,1.01289,
2010-01-06, 01:24:04,VALID,916.917,VALID,0,VALID,96.5506,VALID,0,VALID,19.7598,VALID,35,VALID,0.476172,
2010-01-06, 01:25:04,VALID,916.94,VALID,0,VALID,96.5734,VALID,0,VALID,19.7193,VALID,35,VALID,0.417188,
2010-01-06, 01:26:04,VALID,916.914,VALID,0,VALID,96.5124,VALID,0,VALID,19.7193,VALID,35,VALID,0.253516,
2010-01-06, 01:27:04,VALID,916.932,VALID,0,VALID,96.4896,VALID,0,VALID,19.6998,VALID,35,VALID,0.563281,
2010-01-06, 01:28:04,VALID,916.894,VALID,0,VALID,96.5353,VALID,0,VALID,19.7013,VALID,35,VALID,0.45625,
2010-01-06, 01:29:04,VALID,916.886,VALID,0,VALID,96.5811,VALID,0,VALID,19.7013,VALID,35,VALID,0.623438,
2010-01-06, 01:30:04,VALID,916.858,VALID,0,VALID,96.5658,VALID,0,VALID,19.6608,VALID,35,VALID,0.881641,
2010-01-06, 01:31:04,VALID,916.84,VALID,0,VALID,96.5658,VALID,0,VALID,19.6608,VALID,35,VALID,0.821094,
2010-01-06, 01:32:04,VALID,916.822,VALID,0,VALID,96.5811,VALID,0,VALID,19.6818,VALID,35,VALID,0.441016,
2010-01-06, 01:33:04,VALID,916.83,VALID,0,VALID,96.6115,VALID,0,VALID,19.6608,VALID,35,VALID,0.641406,
2010-01-06, 01:34:04,VALID,916.802,VALID,0,VALID,96.6573,VALID,0,VALID,19.6608,VALID,35,VALID,0.239844,
2010-01-06, 01:35:04,VALID,916.822,VALID,0,VALID,96.6878,VALID,0,VALID,19.7013,VALID,35,VALID,0.474609,
2010-01-06, 01:36:04,VALID,916.799,VALID,0,VALID,96.7107,VALID,0,VALID,19.7193,VALID,35,VALID,0.154297,
2010-01-06, 01:37:04,VALID,916.794,VALID,0,VALID,96.703,VALID,0,VALID,19.7388,VALID,35,VALID,0.21875,
2010-01-06, 01:38:04,VALID,916.766,VALID,0,VALID,96.6192,VALID,0,VALID,19.7403,VALID,35,VALID,0.393359,
2010-01-06, 01:39:04,VALID,916.778,VALID,0,VALID,96.6039,VALID,0,VALID,19.7193,VALID,35,VALID,0.549219,
2010-01-06, 01:40:04,VALID,916.761,VALID,0,VALID,96.5429,VALID,0,VALID,19.7388,VALID,35,VALID,0.3375,
2010-01-06, 01:41:04,VALID,916.738,VALID,0,VALID,96.4362,VALID,0,VALID,19.7388,VALID,35,VALID,0.544922,
2010-01-06, 01:42:04,VALID,916.725,VALID,0,VALID,96.4133,VALID,0,VALID,19.7388,VALID,35,VALID,0.264844,
2010-01-06, 01:43:04,VALID,916.735,VALID,0,VALID,96.3752,VALID,0,VALID,19.7793,VALID,35,VALID,0,
2010-01-06, 01:44:04,VALID,916.695,VALID,0,VALID,96.4133,VALID,0,VALID,19.7778,VALID,35,VALID,0,
2010-01-06, 01:45:04,VALID,916.671,VALID,0,VALID,96.3981,VALID,0,VALID,19.7778,VALID,35,VALID,0,
2010-01-06, 01:46:04,VALID,916.656,VALID,0,VALID,96.3524,VALID,0,VALID,19.7583,VALID,35,VALID,0,
2010-01-06, 01:47:04,VALID,916.625,VALID,0,VALID,96.3524,VALID,0,VALID,19.7988,VALID,35,VALID,0,
2010-01-06, 01:48:04,VALID,916.599,VALID,0,VALID,96.3371,VALID,0,VALID,19.7583,VALID,35,VALID,0,
2010-01-06, 01:49:04,VALID,916.601,VALID,0,VALID,96.3142,VALID,0,VALID,19.7793,VALID,35,VALID,0,
2010-01-06, 01:50:04,VALID,916.599,VALID,0,VALID,96.36,VALID,0,VALID,19.7568,VALID,35,VALID,0,
2010-01-06, 01:51:04,VALID,916.578,VALID,0,VALID,96.2914,VALID,0,VALID,19.7583,VALID,35,VALID,0,
2010-01-06, 01:52:04,VALID,916.542,VALID,0,VALID,96.2456,VALID,0,VALID,19.7193,VALID,35,VALID,0,
2010-01-06, 01:53:04,VALID,916.54,VALID,0,VALID,96.2151,VALID,0.107441,VALID,19.7193,VALID,35,VALID,0,
2010-01-06, 01:54:04,VALID,916.524,VALID,0,VALID,96.0474,VALID,0,VALID,19.7208,VALID,35,VALID,0.598828,
2010-01-06, 01:55:04,VALID,916.502,VALID,0,VALID,95.8721,VALID,0,VALID,19.6803,VALID,35,VALID,0.639063,
2010-01-06, 01:56:04,VALID,916.473,VALID,0,VALID,95.7425,VALID,0,VALID,19.6803,VALID,35,VALID,0.581641,
2010-01-06, 01:57:04,VALID,916.515,VALID,0,VALID,95.5976,VALID,0,VALID,19.6608,VALID,35,VALID,0.725391,
2010-01-06, 01:58:04,VALID,916.48,VALID,0,VALID,95.5138,VALID,0,VALID,19.6623,VALID,35,VALID,0.846875,
2010-01-06, 01:59:04,VALID,916.464,VALID,0,VALID,95.4909,VALID,0,VALID,19.6413,VALID,35,VALID,0.875391,
2010-01-06, 02:00:04,VALID,916.414,VALID,0,VALID,95.5519,VALID,0,VALID,19.6428,VALID,35,VALID,0.739844,
2010-01-06, 02:01:04,VALID,916.409,VALID,0,VALID,95.6662,VALID,0,VALID,19.6023,VALID,35,VALID,0.821094,
2010-01-06, 02:02:04,VALID,916.406,VALID,0,VALID,95.7806,VALID,0,VALID,19.6023,VALID,35,VALID,0.787891,
2010-01-06, 02:03:04,VALID,916.421,VALID,0,VALID,95.8187,VALID,0,VALID,19.6233,VALID,35,VALID,0.733203,
2010-01-06, 02:04:04,VALID,916.389,VALID,0,VALID,95.8187,VALID,0,VALID,19.5633,VALID,35,VALID,0.916797,
2010-01-06, 02:05:04,VALID,916.402,VALID,0,VALID,95.9254,VALID,0,VALID,19.5438,VALID,35,VALID,0.731641,
2010-01-06, 02:06:04,VALID,916.365,VALID,0,VALID,96.055,VALID,0,VALID,19.5453,VALID,35,VALID,0.961328,
2010-01-06, 02:07:04,VALID,916.336,VALID,0,VALID,96.2685,VALID,0,VALID,19.5243,VALID,35,VALID,0.966406,
2010-01-06, 02:08:04,VALID,916.343,VALID,0,VALID,96.3676,VALID,0,VALID,19.5048,VALID,35,VALID,0.919531,
2010-01-06, 02:09:04,VALID,916.373,VALID,0,VALID,96.4819,VALID,0,VALID,19.5063,VALID,35,VALID,0.851953,
2010-01-06, 02:10:04,VALID,916.361,VALID,0,VALID,96.5963,VALID,0,VALID,19.4853,VALID,36,VALID,0.630859,
2010-01-06, 02:11:04,VALID,916.31,VALID,0,VALID,96.6802,VALID,0,VALID,19.4658,VALID,36,VALID,0.826172,
2010-01-06, 02:12:04,VALID,916.298,VALID,0,VALID,96.7411,VALID,0,VALID,19.4658,VALID,35,VALID,0.720312,
2010-01-06, 02:13:04,VALID,916.263,VALID,0,VALID,96.8021,VALID,0,VALID,19.4658,VALID,35,VALID,0.799219,
2010-01-06, 02:14:04,VALID,916.26,VALID,0,VALID,96.7945,VALID,0,VALID,19.4463,VALID,35,VALID,0.940234,
2010-01-06, 02:15:04,VALID,916.278,VALID,0,VALID,96.8631,VALID,0,VALID,19.4658,VALID,35,VALID,0.969531,
2010-01-06, 02:16:04,VALID,916.256,VALID,0,VALID,96.8936,VALID,0,VALID,19.4268,VALID,35,VALID,0.994922,
2010-01-06, 02:17:04,VALID,916.263,VALID,0,VALID,96.9165,VALID,0,VALID,19.4673,VALID,35,VALID,0.795313,
2010-01-06, 02:18:04,VALID,916.223,VALID,0,VALID,96.9775,VALID,0.107441,VALID,19.4463,VALID,35,VALID,1.02148,
2010-01-06, 02:19:04,VALID,916.242,VALID,0,VALID,96.9546,VALID,0,VALID,19.4673,VALID,36,VALID,1.08945,
2010-01-06, 02:20:04,VALID,916.248,VALID,0,VALID,97.0232,VALID,0,VALID,19.4074,VALID,36,VALID,0.820703,
2010-01-06, 02:21:04,VALID,916.244,VALID,0,VALID,97.0308,VALID,0,VALID,19.4074,VALID,36,VALID,0.760156,
2010-01-06, 02:22:04,VALID,916.254,VALID,0,VALID,97.0308,VALID,0,VALID,19.4478,VALID,36,VALID,0.603125,
2010-01-06, 02:23:04,VALID,916.237,VALID,0,VALID,97.0537,VALID,0,VALID,19.4268,VALID,36,VALID,0.840625,
2010-01-06, 02:24:04,VALID,916.214,VALID,0,VALID,97.069,VALID,0,VALID,19.4074,VALID,87,VALID,0.855469,
2010-01-06, 02:25:04,VALID,916.207,VALID,0,VALID,97.0918,VALID,0,VALID,19.4074,VALID,87,VALID,1.02383,
2010-01-06, 02:26:04,VALID,916.226,VALID,0,VALID,97.0766,VALID,0,VALID,19.4074,VALID,87,VALID,0.575391,
2010-01-06, 02:27:04,VALID,916.188,VALID,0,VALID,97.0842,VALID,0,VALID,19.3879,VALID,87,VALID,0.798828,
2010-01-06, 02:28:04,VALID,916.199,VALID,0,VALID,97.0918,VALID,0,VALID,19.3879,VALID,87,VALID,0.725,
2010-01-06, 02:29:04,VALID,916.197,VALID,0,VALID,97.1071,VALID,0,VALID,19.3893,VALID,87,VALID,0.757031,
2010-01-06, 02:30:04,VALID,916.186,VALID,0,VALID,97.1071,VALID,0,VALID,19.4088,VALID,87,VALID,0.721875,
2010-01-06, 02:31:04,VALID,916.17,VALID,0,VALID,97.1147,VALID,0,VALID,19.3879,VALID,87,VALID,0.8,
2010-01-06, 02:32:04,VALID,916.185,VALID,0,VALID,97.1376,VALID,0,VALID,19.3879,VALID,87,VALID,0.646094,
2010-01-06, 02:33:04,VALID,916.142,VALID,0,VALID,97.1299,VALID,0,VALID,19.3879,VALID,87,VALID,0.985547,
2010-01-06, 02:34:04,VALID,916.164,VALID,0,VALID,97.1528,VALID,0,VALID,19.3879,VALID,87,VALID,1.08125,
2010-01-06, 02:35:04,VALID,916.157,VALID,0,VALID,97.1299,VALID,0.107441,VALID,19.4088,VALID,87,VALID,0.825,
2010-01-06, 02:36:04,VALID,916.175,VALID,0,VALID,97.1299,VALID,0.107441,VALID,19.3879,VALID,87,VALID,0.80625,
2010-01-06, 02:37:04,VALID,916.137,VALID,0,VALID,97.1147,VALID,0,VALID,19.3684,VALID,87,VALID,0.761328,
2010-01-06, 02:38:04,VALID,916.167,VALID,0,VALID,97.1147,VALID,0.107441,VALID,19.3474,VALID,87,VALID,0.603516,
2010-01-06, 02:39:04,VALID,916.126,VALID,0,VALID,97.069,VALID,0,VALID,19.3684,VALID,87,VALID,0.589063,
2010-01-06, 02:40:04,VALID,916.13,VALID,0,VALID,97.069,VALID,0.107441,VALID,19.3879,VALID,87,VALID,0.750391,
2010-01-06, 02:41:04,VALID,916.138,VALID,0,VALID,97.0613,VALID,0,VALID,19.3879,VALID,87,VALID,0.758203,
2010-01-06, 02:42:04,VALID,916.129,VALID,0,VALID,97.0461,VALID,0,VALID,19.4074,VALID,87,VALID,0.855078,
2010-01-06, 02:43:04,VALID,916.146,VALID,0,VALID,97.0003,VALID,0,VALID,19.4268,VALID,87,VALID,0.958203,
2010-01-06, 02:44:04,VALID,916.117,VALID,0,VALID,96.9165,VALID,0,VALID,19.4268,VALID,87,VALID,1.02539,
2010-01-06, 02:45:04,VALID,916.121,VALID,0,VALID,96.7488,VALID,0.107441,VALID,19.4268,VALID,87,VALID,0.703906,
2010-01-06, 02:46:04,VALID,916.122,VALID,0,VALID,96.6573,VALID,0.107441,VALID,19.4268,VALID,87,VALID,1.05664,
2010-01-06, 02:47:04,VALID,916.106,VALID,0,VALID,96.5887,VALID,0.107441,VALID,19.4074,VALID,87,VALID,0.983594,
2010-01-06, 02:48:04,VALID,916.081,VALID,0,VALID,96.5734,VALID,0.107441,VALID,19.4074,VALID,87,VALID,1.35234,
2010-01-06, 02:49:04,VALID,916.108,VALID,0,VALID,96.5353,VALID,0,VALID,19.3684,VALID,87,VALID,1.34727,
2010-01-06, 02:50:04,VALID,916.095,VALID,0,VALID,96.5582,VALID,0,VALID,19.3489,VALID,86,VALID,1.35898,
2010-01-06, 02:51:04,VALID,916.09,VALID,0,VALID,96.5582,VALID,0.107441,VALID,19.3489,VALID,21,VALID,1.57383,
2010-01-06, 02:52:04,VALID,916.08,VALID,0,VALID,96.6192,VALID,0.107441,VALID,19.3294,VALID,21,VALID,1.67344,
2010-01-06, 02:53:04,VALID,916.061,VALID,0,VALID,96.6573,VALID,0.107441,VALID,19.3294,VALID,21,VALID,1.36289,
2010-01-06, 02:54:04,VALID,916.061,VALID,0,VALID,96.6878,VALID,0.107441,VALID,19.3489,VALID,6,VALID,0.826563,
2010-01-06, 02:55:04,VALID,916.052,VALID,0,VALID,96.7564,VALID,0.107441,VALID,19.3294,VALID,359,VALID,0.694531,
2010-01-06, 02:56:04,VALID,916.049,VALID,0,VALID,96.8098,VALID,0,VALID,19.3294,VALID,359,VALID,0.327344,
2010-01-06, 02:57:04,VALID,916.039,VALID,0,VALID,96.8707,VALID,0,VALID,19.3684,VALID,359,VALID,0.188672,
2010-01-06, 02:58:04,VALID,916.055,VALID,0,VALID,96.9089,VALID,0,VALID,19.3474,VALID,359,VALID,0.322656,
2010-01-06, 02:59:04,VALID,916.012,VALID,0,VALID,96.9241,VALID,0,VALID,19.3684,VALID,359,VALID,0.122266,
2010-01-06, 03:00:04,VALID,916.05,VALID,0,VALID,96.9241,VALID,0,VALID,19.3684,VALID,359,VALID,0.60625,
2010-01-06, 03:01:04,VALID,916.044,VALID,0,VALID,96.9241,VALID,0,VALID,19.3489,VALID,359,VALID,0.758594,
2010-01-06, 03:02:04,VALID,916.06,VALID,0,VALID,96.9089,VALID,0,VALID,19.3294,VALID,359,VALID,0.385547,
2010-01-06, 03:03:04,VALID,916.052,VALID,0,VALID,96.9394,VALID,0,VALID,19.3294,VALID,359,VALID,0.0523437,
2010-01-06, 03:04:04,VALID,916.059,VALID,0,VALID,96.9546,VALID,0.107441,VALID,19.3294,VALID,359,VALID,0,
2010-01-06, 03:05:04,VALID,916.051,VALID,0,VALID,97.008,VALID,0.107441,VALID,19.3294,VALID,359,VALID,0.245703,
2010-01-06, 03:06:04,VALID,916.044,VALID,0,VALID,97.0156,VALID,0.107441,VALID,19.3489,VALID,359,VALID,0.336719,
2010-01-06, 03:07:04,VALID,916.036,VALID,0,VALID,97.0308,VALID,0,VALID,19.3489,VALID,359,VALID,0.383984,
2010-01-06, 03:08:04,VALID,916.032,VALID,0,VALID,97.0156,VALID,0.107441,VALID,19.3279,VALID,359,VALID,0.598437,
2010-01-06, 03:09:04,VALID,916.047,VALID,0,VALID,97.0156,VALID,0.107441,VALID,19.3489,VALID,359,VALID,0.525781,
2010-01-06, 03:10:04,VALID,916.044,VALID,0,VALID,96.9698,VALID,0,VALID,19.3489,VALID,359,VALID,0.738672,
2010-01-06, 03:11:04,VALID,916.04,VALID,0,VALID,96.9546,VALID,0,VALID,19.3294,VALID,359,VALID,0.717188,
2010-01-06, 03:12:04,VALID,916.038,VALID,0,VALID,96.8936,VALID,0.107441,VALID,19.3099,VALID,359,VALID,0.626562,
2010-01-06, 03:13:04,VALID,916.067,VALID,0,VALID,96.9012,VALID,0.107441,VALID,19.3294,VALID,359,VALID,0.255859,
2010-01-06, 03:14:04,VALID,916.058,VALID,0,VALID,96.886,VALID,0,VALID,19.3294,VALID,359,VALID,0.373828,
2010-01-06, 03:15:04,VALID,916.053,VALID,0,VALID,96.886,VALID,0,VALID,19.3294,VALID,359,VALID,0.059375,
2010-01-06, 03:16:04,VALID,916.059,VALID,0,VALID,96.8707,VALID,0,VALID,19.3489,VALID,359,VALID,0.619922,
2010-01-06, 03:17:04,VALID,916.056,VALID,0,VALID,96.8784,VALID,0.107441,VALID,19.3684,VALID,359,VALID,0.571484,
2010-01-06, 03:18:04,VALID,916.034,VALID,0,VALID,96.7716,VALID,0,VALID,19.3489,VALID,359,VALID,0.621094,
2010-01-06, 03:19:04,VALID,916.041,VALID,0,VALID,96.6725,VALID,0,VALID,19.3099,VALID,359,VALID,0.905859,
2010-01-06, 03:20:04,VALID,916.055,VALID,0,VALID,96.6115,VALID,0,VALID,19.3294,VALID,359,VALID,0.515625,
2010-01-06, 03:21:04,VALID,916.06,VALID,0,VALID,96.5734,VALID,0,VALID,19.3099,VALID,359,VALID,0.51875,
2010-01-06, 03:22:04,VALID,916.022,VALID,0,VALID,96.5048,VALID,0,VALID,19.3099,VALID,359,VALID,0.767187,
2010-01-06, 03:23:04,VALID,916.009,VALID,0,VALID,96.4819,VALID,0.107441,VALID,19.3113,VALID,359,VALID,0.671094,
2010-01-06, 03:24:04,VALID,916.019,VALID,0,VALID,96.3829,VALID,0,VALID,19.2904,VALID,359,VALID,0.612109,
2010-01-06, 03:25:04,VALID,916.02,VALID,0,VALID,96.4743,VALID,0,VALID,19.3489,VALID,359,VALID,0.934375,
2010-01-06, 03:26:04,VALID,916.019,VALID,0,VALID,96.5887,VALID,0,VALID,19.3684,VALID,359,VALID,0.7,
2010-01-06, 03:27:04,VALID,916.015,VALID,0,VALID,96.6878,VALID,0,VALID,19.3684,VALID,359,VALID,0.207813,
2010-01-06, 03:28:04,VALID,916.008,VALID,0,VALID,96.7335,VALID,0,VALID,19.3879,VALID,359,VALID,0.28125,
2010-01-06, 03:29:04,VALID,916.033,VALID,0,VALID,96.7869,VALID,0,VALID,19.3879,VALID,359,VALID,0.275,
2010-01-06, 03:30:04,VALID,916.017,VALID,0,VALID,96.764,VALID,0,VALID,19.3684,VALID,359,VALID,0.390234,
2010-01-06, 03:31:04,VALID,916.004,VALID,0,VALID,96.642,VALID,0,VALID,19.3489,VALID,359,VALID,0.700781,
2010-01-06, 03:32:04,VALID,916.004,VALID,0,VALID,96.4743,VALID,0,VALID,19.3294,VALID,359,VALID,0.795313,
2010-01-06, 03:33:04,VALID,916.012,VALID,0,VALID,96.2533,VALID,0,VALID,19.3489,VALID,359,VALID,0.709766,
2010-01-06, 03:34:04,VALID,916.023,VALID,0,VALID,95.9941,VALID,0.107441,VALID,19.3879,VALID,359,VALID,0.866797,
2010-01-06, 03:35:04,VALID,916.04,VALID,0,VALID,95.7272,VALID,0,VALID,19.4074,VALID,359,VALID,0.972656,
2010-01-06, 03:36:04,VALID,916.008,VALID,0,VALID,95.6205,VALID,0,VALID,19.4088,VALID,359,VALID,0.744922,
2010-01-06, 03:37:04,VALID,916.005,VALID,0,VALID,95.5671,VALID,0,VALID,19.3684,VALID,359,VALID,0.581641,
2010-01-06, 03:38:04,VALID,916.02,VALID,0,VALID,95.6053,VALID,0,VALID,19.3294,VALID,359,VALID,0.624219,
2010-01-06, 03:39:04,VALID,916.024,VALID,0,VALID,95.7349,VALID,0,VALID,19.3294,VALID,359,VALID,0.00820312,
2010-01-06, 03:40:04,VALID,916.028,VALID,0,VALID,95.773,VALID,0,VALID,19.3099,VALID,359,VALID,0.522656,
2010-01-06, 03:41:05,VALID,916.034,VALID,0,VALID,95.8873,VALID,0,VALID,19.3099,VALID,359,VALID,0.416016,
2010-01-06, 03:42:05,VALID,916.016,VALID,0,VALID,95.9559,VALID,0,VALID,19.3099,VALID,359,VALID,0.440625,
2010-01-06, 03:43:05,VALID,915.998,VALID,0,VALID,96.0627,VALID,0,VALID,19.3113,VALID,359,VALID,0.45,
2010-01-06, 03:44:05,VALID,916.021,VALID,0,VALID,96.1465,VALID,0,VALID,19.2904,VALID,359,VALID,0.205078,
2010-01-06, 03:45:05,VALID,915.965,VALID,0,VALID,96.2761,VALID,0,VALID,19.3099,VALID,359,VALID,0.705078,